Location: Gro� Glienicke
(52.4675°N, 13.1079°E)
Time: 18:06:55
(UTC+00:00)

Cosmos 2369 Rocket - Pass Details

Date: 06 July 2020
Orbit: 829 x 852 km, 71.0° (Epoch: 12 August)

Event Time Altitude Azimuth Distance (km) Brightness Sun altitude
Rises 21:37:03 0° 329° (NNW) 3,385 7.3 -12.1°
Reaches altitude 10° 21:39:47 10° 340° (NNW) 2,448 6.2 -12.3°
Maximum altitude 21:44:44 31° 42° (NE) 1,429 3.7 -12.6°
Drops below altitude 10° 21:49:41 10° 104° (ESE) 2,444 4.3 -12.8°
Enters shadow 21:51:18 - 111° (ESE) 2,991 4.7 -12.9°
